Regional Weather Roundup
Issued by NWS

Home | Current Version | Previous Version | Text Only | Print | Product List | Glossary On
Versions: 1 2 3 4 5 6 7 8 9 10 11 12 13 14 15 16 17 18 19 20 21 22 23 24 25 26 27
000
ASUS45 KBOI 202010
RWRID

IDAHO REGIONAL WEATHER ROUNDUP
NATIONAL WEATHER SERVICE BOISE ID
100 PM MST SAT JAN 20 2018

NOTE: "FAIR" INDICATES FEW OR NO CLOUDS BELOW 12000 FEET
WITH NO SIGNIFICANT WEATHER AND/OR OBSTRUCTIONS TO VISIBILITY

IDZ012-014-202100-
SOUTHWEST IDAHO


CITY           SKY/WX    TMP DP  RH WIND       PRES   REMARKS
BOISE          SUNNY     39  28  64 NW12      30.06F WCI  32
CALDWELL         N/A     40  28  62 W10       30.09F WCI  33
MOUNTAIN HOME  SUNNY     39  28  63 NW15      30.04F WCI  31
$$

IDZ016-017-202100-
SOUTHCENTRAL IDAHO


CITY           SKY/WX    TMP DP  RH WIND       PRES   REMARKS
BURLEY         MOSUNNY   34  24  67 W9        29.96F WCI  27
JEROME         SUNNY     33  23  66 SW6       29.99F WCI  28
TWIN FALLS     MOSUNNY   34  21  59 W16       29.98F WCI  24
$$

IDZ019>023-202100-
SOUTHEAST IDAHO


CITY           SKY/WX    TMP DP  RH WIND       PRES   REMARKS
IDAHO FALLS    PTSUNNY   33  16  49 N14       29.94F WCI  23
POCATELLO      PTSUNNY   33  22  63 W5        29.95F WCI  29
REXBURG        PTSUNNY   30  18  60 NE5       29.93F WCI  25
$$

IDZ006-010-011-018-031-032-202100-
CENTRAL IDAHO MOUNTAINS


CITY           SKY/WX    TMP DP  RH WIND       PRES   REMARKS
MCCALL         PTSUNNY   24  22  91 S5        29.97F WCI  18
HAILEY         SUNNY     32  10  40 NW10      29.94F WCI  24
STANLEY          N/A     24  10  55 W5        29.96F WCI  18
SALMON         CLOUDY    29  21  72 N5        30.03F WCI  24
CHALLIS        CLOUDY    31  16  54 E3        29.98F
$$

IDZ002-004-006-007-026-202100-
NORTHERN IDAHO


CITY           SKY/WX    TMP DP  RH WIND       PRES   REMARKS
LEWISTON       CLOUDY    41  34  76 E3        30.07S
LOWELL           N/A     39  36  89 CALM      30.10F
COEUR D`ALENE  LGT SNOW  34  32  92 CALM      30.02S FOG
MULLAN PASS    LGT SNOW  25  23  92 W6        29.89S VSB 3/4 WCI  18
$$




USA.gov is the U.S. government's official web portal to all federal, state and local government web resources and services.